owner,sensor,date,latitude,longitude,air_pressure(mBar),qcFlag 
ADCP,ioos:station:wmo:42361:1,2017-05-18T19:30:00Z,27.5500,-92.4900,1012.2,11111222 
ADCP,ioos:station:wmo:42361:1,2017-05-18T20:30:00Z,27.5500,-92.4900,1011.5,11111222 
ADCP,ioos:station:wmo:42361:1,2017-05-18T21:30:00Z,27.5500,-92.4900,1011.5,11111222 
ADCP,ioos:station:wmo:42361:1,2017-05-18T22:30:00Z,27.5500,-92.4900,1011.5,11111222 
ADCP,ioos:station:wmo:42361:1,2017-05-18T23:30:00Z,27.5500,-92.4900,1011.5,11111222 
ADCP,ioos:station:wmo:42361:1,2017-05-19T00:30:00Z,27.5500,-92.4900,1011.2,11111222 
ADCP,ioos:station:wmo:42361:1,2017-05-19T01:30:00Z,27.5500,-92.4900,1011.5,11111222 
ADCP,ioos:station:wmo:42361:1,2017-05-19T02:30:00Z,27.5500,-92.4900,1011.9,11111222 
ADCP,ioos:station:wmo:42361:1,2017-05-19T03:30:00Z,27.5500,-92.4900,1011.9,11111222 
ADCP,ioos:station:wmo:42361:1,2017-05-19T04:30:00Z,27.5500,-92.4900,1011.9,11111222 
ADCP,ioos:station:wmo:42361:1,2017-05-19T05:30:00Z,27.5500,-92.4900,1011.5,11111222 
ADCP,ioos:station:wmo:42361:1,2017-05-19T06:30:00Z,27.5500,-92.4900,1011.2,11111222 
ADCP,ioos:station:wmo:42361:1,2017-05-19T07:30:00Z,27.5500,-92.4900,1011.2,11111222 
ADCP,ioos:station:wmo:42361:1,2017-05-19T08:30:00Z,27.5500,-92.4900,1010.8,11111222 
ADCP,ioos:station:wmo:42361:1,2017-05-19T09:30:00Z,27.5500,-92.4900,1011.2,11111222 
ADCP,ioos:station:wmo:42361:1,2017-05-19T10:30:00Z,27.5500,-92.4900,1010.8,11111222 
ADCP,ioos:station:wmo:42361:1,2017-05-19T11:30:00Z,27.5500,-92.4900,1011.2,11111222 
ADCP,ioos:station:wmo:42361:1,2017-05-19T12:30:00Z,27.5500,-92.4900,1012.2,11111222 
ADCP,ioos:station:wmo:42361:1,2017-05-19T13:30:00Z,27.5500,-92.4900,1012.2,11111222 
ADCP,ioos:station:wmo:42361:1,2017-05-19T14:30:00Z,27.5500,-92.4900,1012.5,11111222 
ADCP,ioos:station:wmo:42361:1,2017-05-19T15:30:00Z,27.5500,-92.4900,1012.5,11111222 
ADCP,ioos:station:wmo:42361:1,2017-05-19T16:30:00Z,27.5500,-92.4900,1012.5,11111222 
ADCP,ioos:station:wmo:42361:1,2017-05-19T17:30:00Z,27.5500,-92.4900,1012.2,11111222 
ADCP,ioos:station:wmo:42361:1,2017-05-19T18:30:00Z,27.5500,-92.4900,1011.9,11111222 
ADCP,ioos:station:wmo:42361:1,2017-05-19T19:30:00Z,27.5500,-92.4900,1011.2,11111222 
ADCP,ioos:station:wmo:42361:1,2017-05-19T20:30:00Z,27.5500,-92.4900,1010.8,11111222 
ADCP,ioos:station:wmo:42361:1,2017-05-19T21:30:00Z,27.5500,-92.4900,1010.5,11111222 
ADCP,ioos:station:wmo:42361:1,2017-05-19T22:30:00Z,27.5500,-92.4900,1010.5,11111222 
ADCP,ioos:station:wmo:42361:1,2017-05-19T23:30:00Z,27.5500,-92.4900,1010.5,11111222 
ADCP,ioos:station:wmo:42361:1,2017-05-20T00:30:00Z,27.5500,-92.4900,1010.2,11111222 
ADCP,ioos:station:wmo:42361:1,2017-05-20T01:30:00Z,27.5500,-92.4900,1010.5,11111222 
ADCP,ioos:station:wmo:42361:1,2017-05-20T02:30:00Z,27.5500,-92.4900,1011.2,11111222 
ADCP,ioos:station:wmo:42361:1,2017-05-20T03:30:00Z,27.5500,-92.4900,1011.2,11111222 
ADCP,ioos:station:wmo:42361:1,2017-05-20T04:30:00Z,27.5500,-92.4900,1011.5,11111222 
ADCP,ioos:station:wmo:42361:1,2017-05-20T05:30:00Z,27.5500,-92.4900,1011.2,11111222 
ADCP,ioos:station:wmo:42361:1,2017-05-20T06:30:00Z,27.5500,-92.4900,1010.8,11111222 
ADCP,ioos:station:wmo:42361:1,2017-05-20T07:30:00Z,27.5500,-92.4900,1010.5,11111222 
ADCP,ioos:station:wmo:42361:1,2017-05-20T08:30:00Z,27.5500,-92.4900,1010.2,11111222 
ADCP,ioos:station:wmo:42361:1,2017-05-20T09:30:00Z,27.5500,-92.4900,1009.8,11111222 
ADCP,ioos:station:wmo:42361:1,2017-05-20T10:30:00Z,27.5500,-92.4900,1010.5,11111222 
ADCP,ioos:station:wmo:42361:1,2017-05-20T11:30:00Z,27.5500,-92.4900,1010.8,11111222 
ADCP,ioos:station:wmo:42361:1,2017-05-20T12:30:00Z,27.5500,-92.4900,1011.2,11111222 
ADCP,ioos:station:wmo:42361:1,2017-05-20T13:30:00Z,27.5500,-92.4900,1011.9,11111222 
ADCP,ioos:station:wmo:42361:1,2017-05-20T14:30:00Z,27.5500,-92.4900,1012.5,11111222 
ADCP,ioos:station:wmo:42361:1,2017-05-20T15:30:00Z,27.5500,-92.4900,1013.2,11111222 
ADCP,ioos:station:wmo:42361:1,2017-05-20T16:30:00Z,27.5500,-92.4900,1013.2,11111222 
ADCP,ioos:station:wmo:42361:1,2017-05-20T17:30:00Z,27.5500,-92.4900,1013.5,11111222 
ADCP,ioos:station:wmo:42361:1,2017-05-20T18:30:00Z,27.5500,-92.4900,1012.9,11111222 
ADCP,ioos:station:wmo:42361:1,2017-05-20T19:30:00Z,27.5500,-92.4900,1012.5,11111222 
ADCP,ioos:station:wmo:42361:1,2017-05-20T20:30:00Z,27.5500,-92.4900,1011.9,11111222 
ADCP,ioos:station:wmo:42361:1,2017-05-20T21:30:00Z,27.5500,-92.4900,1011.5,11111222 
ADCP,ioos:station:wmo:42361:1,2017-05-20T22:30:00Z,27.5500,-92.4900,1011.5,11111222 
ADCP,ioos:station:wmo:42361:1,2017-05-20T23:30:00Z,27.5500,-92.4900,1011.2,11111222 
ADCP,ioos:station:wmo:42361:1,2017-05-21T00:30:00Z,27.5500,-92.4900,1012.2,11111222 
ADCP,ioos:station:wmo:42361:1,2017-05-21T01:30:00Z,27.5500,-92.4900,1012.9,11111222 
ADCP,ioos:station:wmo:42361:1,2017-05-21T02:30:00Z,27.5500,-92.4900,1013.9,11111222 
ADCP,ioos:station:wmo:42361:1,2017-05-21T03:30:00Z,27.5500,-92.4900,1014.9,11111222 
ADCP,ioos:station:wmo:42361:1,2017-05-21T04:30:00Z,27.5500,-92.4900,1014.6,11111222 
ADCP,ioos:station:wmo:42361:1,2017-05-21T05:30:00Z,27.5500,-92.4900,1014.9,11111222 
ADCP,ioos:station:wmo:42361:1,2017-05-21T06:30:00Z,27.5500,-92.4900,1014.9,11111222 
ADCP,ioos:station:wmo:42361:1,2017-05-21T07:30:00Z,27.5500,-92.4900,1014.2,11111222 
ADCP,ioos:station:wmo:42361:1,2017-05-21T08:30:00Z,27.5500,-92.4900,1013.9,11111222 
ADCP,ioos:station:wmo:42361:1,2017-05-21T09:30:00Z,27.5500,-92.4900,1014.2,11111222 
ADCP,ioos:station:wmo:42361:1,2017-05-21T10:30:00Z,27.5500,-92.4900,1015.2,11111222 
ADCP,ioos:station:wmo:42361:1,2017-05-21T11:30:00Z,27.5500,-92.4900,1015.6,11111222 
ADCP,ioos:station:wmo:42361:1,2017-05-21T12:30:00Z,27.5500,-92.4900,1015.9,11111222 
ADCP,ioos:station:wmo:42361:1,2017-05-21T13:30:00Z,27.5500,-92.4900,1015.9,11111222 
ADCP,ioos:station:wmo:42361:1,2017-05-21T14:30:00Z,27.5500,-92.4900,1015.6,11111222 
ADCP,ioos:station:wmo:42361:1,2017-05-21T15:30:00Z,27.5500,-92.4900,1016.3,11111222 
ADCP,ioos:station:wmo:42361:1,2017-05-21T16:30:00Z,27.5500,-92.4900,1016.9,11111222 
ADCP,ioos:station:wmo:42361:1,2017-05-21T17:30:00Z,27.5500,-92.4900,1017.3,11111222 
ADCP,ioos:station:wmo:42361:1,2017-05-21T18:30:00Z,27.5500,-92.4900,1016.3,11111222 
ADCP,ioos:station:wmo:42361:1,2017-05-21T19:30:00Z,27.5500,-92.4900,1015.6,11111222 
ADCP,ioos:station:wmo:42361:1,2017-05-21T20:30:00Z,27.5500,-92.4900,1014.6,11111222 
ADCP,ioos:station:wmo:42361:1,2017-05-21T21:30:00Z,27.5500,-92.4900,1014.9,11111222 
ADCP,ioos:station:wmo:42361:1,2017-05-21T22:30:00Z,27.5500,-92.4900,1015.2,11111222 
ADCP,ioos:station:wmo:42361:1,2017-05-21T23:30:00Z,27.5500,-92.4900,1014.9,11111222 
ADCP,ioos:station:wmo:42361:1,2017-05-22T00:30:00Z,27.5500,-92.4900,1015.2,11111222 
ADCP,ioos:station:wmo:42361:1,2017-05-22T01:30:00Z,27.5500,-92.4900,1015.9,11111222 
ADCP,ioos:station:wmo:42361:1,2017-05-22T02:30:00Z,27.5500,-92.4900,1015.9,11111222 
ADCP,ioos:station:wmo:42361:1,2017-05-22T03:30:00Z,27.5500,-92.4900,1017.3,11111222 
ADCP,ioos:station:wmo:42361:1,2017-05-22T04:30:00Z,27.5500,-92.4900,1017.6,11111222 
ADCP,ioos:station:wmo:42361:1,2017-05-22T05:30:00Z,27.5500,-92.4900,1017.6,11111222 
ADCP,ioos:station:wmo:42361:1,2017-05-22T06:30:00Z,27.5500,-92.4900,1017.3,11111222 
ADCP,ioos:station:wmo:42361:1,2017-05-22T07:30:00Z,27.5500,-92.4900,1016.9,11111222 
ADCP,ioos:station:wmo:42361:1,2017-05-22T08:30:00Z,27.5500,-92.4900,1016.9,11111222 
ADCP,ioos:station:wmo:42361:1,2017-05-22T09:30:00Z,27.5500,-92.4900,1015.2,11111222 
ADCP,ioos:station:wmo:42361:1,2017-05-22T10:30:00Z,27.5500,-92.4900,1015.2,11111222 
ADCP,ioos:station:wmo:42361:1,2017-05-22T11:30:00Z,27.5500,-92.4900,1015.2,11111222 
ADCP,ioos:station:wmo:42361:1,2017-05-22T12:30:00Z,27.5500,-92.4900,1014.6,11111222 
ADCP,ioos:station:wmo:42361:1,2017-05-22T13:30:00Z,27.5500,-92.4900,1014.9,11111222 
ADCP,ioos:station:wmo:42361:1,2017-05-22T14:30:00Z,27.5500,-92.4900,1014.9,11111222 
ADCP,ioos:station:wmo:42361:1,2017-05-22T15:30:00Z,27.5500,-92.4900,1014.9,11111222 
ADCP,ioos:station:wmo:42361:1,2017-05-22T16:30:00Z,27.5500,-92.4900,1014.9,11111222 
ADCP,ioos:station:wmo:42361:1,2017-05-22T17:30:00Z,27.5500,-92.4900,1014.6,11111222 
ADCP,ioos:station:wmo:42361:1,2017-05-22T18:30:00Z,27.5500,-92.4900,1013.9,11111222 
ADCP,ioos:station:wmo:42361:1,2017-05-22T19:30:00Z,27.5500,-92.4900,1013.2,11111222 
ADCP,ioos:station:wmo:42361:1,2017-05-22T20:30:00Z,27.5500,-92.4900,1011.9,11111222 
ADCP,ioos:station:wmo:42361:1,2017-05-22T21:30:00Z,27.5500,-92.4900,1011.5,11111222 
ADCP,ioos:station:wmo:42361:1,2017-05-22T22:30:00Z,27.5500,-92.4900,1010.5,11111222 
ADCP,ioos:station:wmo:42361:1,2017-05-22T23:30:00Z,27.5500,-92.4900,1010.5,11111222 
ADCP,ioos:station:wmo:42361:1,2017-05-23T00:30:00Z,27.5500,-92.4900,1010.2,11111222 
ADCP,ioos:station:wmo:42361:1,2017-05-23T01:30:00Z,27.5500,-92.4900,1009.8,11111222 
ADCP,ioos:station:wmo:42361:1,2017-05-23T02:30:00Z,27.5500,-92.4900,1009.8,11111222 
ADCP,ioos:station:wmo:42361:1,2017-05-23T03:30:00Z,27.5500,-92.4900,1010.2,11111222 
ADCP,ioos:station:wmo:42361:1,2017-05-23T04:30:00Z,27.5500,-92.4900,1010.5,11111222 
ADCP,ioos:station:wmo:42361:1,2017-05-23T05:30:00Z,27.5500,-92.4900,1010.5,11111222 
ADCP,ioos:station:wmo:42361:1,2017-05-23T06:30:00Z,27.5500,-92.4900,1009.8,11111222 
ADCP,ioos:station:wmo:42361:1,2017-05-23T07:30:00Z,27.5500,-92.4900,1009.1,11111222 
ADCP,ioos:station:wmo:42361:1,2017-05-23T08:30:00Z,27.5500,-92.4900,1008.8,11111222 
ADCP,ioos:station:wmo:42361:1,2017-05-23T09:30:00Z,27.5500,-92.4900,1008.8,11111222 
ADCP,ioos:station:wmo:42361:1,2017-05-23T10:30:00Z,27.5500,-92.4900,1009.1,11111222 
ADCP,ioos:station:wmo:42361:1,2017-05-23T11:30:00Z,27.5500,-92.4900,1008.5,11111222 
ADCP,ioos:station:wmo:42361:1,2017-05-23T12:30:00Z,27.5500,-92.4900,1008.5,11111222 
ADCP,ioos:station:wmo:42361:1,2017-05-23T13:30:00Z,27.5500,-92.4900,1008.8,11111222 
ADCP,ioos:station:wmo:42361:1,2017-05-23T14:30:00Z,27.5500,-92.4900,1009.5,11111222 
ADCP,ioos:station:wmo:42361:1,2017-05-23T15:30:00Z,27.5500,-92.4900,1009.5,11111222 
ADCP,ioos:station:wmo:42361:1,2017-05-23T16:30:00Z,27.5500,-92.4900,1009.5,11111222 
ADCP,ioos:station:wmo:42361:1,2017-05-23T17:30:00Z,27.5500,-92.4900,1009.5,11111222 
ADCP,ioos:station:wmo:42361:1,2017-05-23T18:30:00Z,27.5500,-92.4900,1009.1,11111222 
ADCP,ioos:station:wmo:42361:1,2017-05-23T19:30:00Z,27.5500,-92.4900,1008.8,11111222 
ADCP,ioos:station:wmo:42361:1,2017-05-23T20:30:00Z,27.5500,-92.4900,1008.5,11111222 
ADCP,ioos:station:wmo:42361:1,2017-05-23T21:30:00Z,27.5500,-92.4900,1007.8,11111222 
ADCP,ioos:station:wmo:42361:1,2017-05-23T22:30:00Z,27.5500,-92.4900,1006.8,11111222 
ADCP,ioos:station:wmo:42361:1,2017-05-23T23:30:00Z,27.5500,-92.4900,1006.8,11111222 
ADCP,ioos:station:wmo:42361:1,2017-05-24T00:30:00Z,27.5500,-92.4900,1006.8,11111222 
ADCP,ioos:station:wmo:42361:1,2017-05-24T01:30:00Z,27.5500,-92.4900,1006.8,11111222 
ADCP,ioos:station:wmo:42361:1,2017-05-24T02:30:00Z,27.5500,-92.4900,1007.1,11111222 
ADCP,ioos:station:wmo:42361:1,2017-05-24T03:30:00Z,27.5500,-92.4900,1008.8,11111222 
ADCP,ioos:station:wmo:42361:1,2017-05-24T04:30:00Z,27.5500,-92.4900,1008.5,11111222 
ADCP,ioos:station:wmo:42361:1,2017-05-24T05:30:00Z,27.5500,-92.4900,1009.5,11111222 
ADCP,ioos:station:wmo:42361:1,2017-05-24T06:30:00Z,27.5500,-92.4900,1008.8,11111222 
ADCP,ioos:station:wmo:42361:1,2017-05-24T07:30:00Z,27.5500,-92.4900,1007.8,11111222 
ADCP,ioos:station:wmo:42361:1,2017-05-24T08:30:00Z,27.5500,-92.4900,1007.1,11111222 
ADCP,ioos:station:wmo:42361:1,2017-05-24T09:30:00Z,27.5500,-92.4900,1006.4,11111222 
ADCP,ioos:station:wmo:42361:1,2017-05-24T10:30:00Z,27.5500,-92.4900,1006.1,11111222 
ADCP,ioos:station:wmo:42361:1,2017-05-24T11:30:00Z,27.5500,-92.4900,1006.4,11111222 
ADCP,ioos:station:wmo:42361:1,2017-05-24T12:30:00Z,27.5500,-92.4900,1006.1,11111222 
ADCP,ioos:station:wmo:42361:1,2017-05-24T13:30:00Z,27.5500,-92.4900,1006.8,11111222 
ADCP,ioos:station:wmo:42361:1,2017-05-24T14:30:00Z,27.5500,-92.4900,1008.5,11111222 
ADCP,ioos:station:wmo:42361:1,2017-05-24T15:30:00Z,27.5500,-92.4900,1008.8,11111222 
ADCP,ioos:station:wmo:42361:1,2017-05-24T16:30:00Z,27.5500,-92.4900,1009.1,11111222 
ADCP,ioos:station:wmo:42361:1,2017-05-24T17:30:00Z,27.5500,-92.4900,1009.8,11111222 
ADCP,ioos:station:wmo:42361:1,2017-05-24T18:30:00Z,27.5500,-92.4900,1009.5,11111222 
ADCP,ioos:station:wmo:42361:1,2017-05-24T19:30:00Z,27.5500,-92.4900,1009.5,11111222 
ADCP,ioos:station:wmo:42361:1,2017-05-24T20:30:00Z,27.5500,-92.4900,1009.1,11111222 
ADCP,ioos:station:wmo:42361:1,2017-05-24T21:30:00Z,27.5500,-92.4900,1008.5,11111222 
ADCP,ioos:station:wmo:42361:1,2017-05-24T22:30:00Z,27.5500,-92.4900,1008.1,11111222 
ADCP,ioos:station:wmo:42361:1,2017-05-24T23:30:00Z,27.5500,-92.4900,1007.8,11111222 
ADCP,ioos:station:wmo:42361:1,2017-05-25T00:30:00Z,27.5500,-92.4900,1007.5,11111222 
ADCP,ioos:station:wmo:42361:1,2017-05-25T01:30:00Z,27.5500,-92.4900,1008.1,11111222 
ADCP,ioos:station:wmo:42361:1,2017-05-25T02:30:00Z,27.5500,-92.4900,1008.5,11111222 
ADCP,ioos:station:wmo:42361:1,2017-05-25T03:30:00Z,27.5500,-92.4900,1008.8,11111222 
ADCP,ioos:station:wmo:42361:1,2017-05-25T04:30:00Z,27.5500,-92.4900,1009.5,11111222 
ADCP,ioos:station:wmo:42361:1,2017-05-25T05:30:00Z,27.5500,-92.4900,1009.8,11111222 
ADCP,ioos:station:wmo:42361:1,2017-05-25T06:30:00Z,27.5500,-92.4900,1009.8,11111222 
ADCP,ioos:station:wmo:42361:1,2017-05-25T07:30:00Z,27.5500,-92.4900,1010.2,11111222 
ADCP,ioos:station:wmo:42361:1,2017-05-25T08:30:00Z,27.5500,-92.4900,1009.8,11111222 
ADCP,ioos:station:wmo:42361:1,2017-05-25T09:30:00Z,27.5500,-92.4900,1010.2,11111222 
ADCP,ioos:station:wmo:42361:1,2017-05-25T10:30:00Z,27.5500,-92.4900,1010.2,11111222 
ADCP,ioos:station:wmo:42361:1,2017-05-25T11:30:00Z,27.5500,-92.4900,1010.5,11111222 
ADCP,ioos:station:wmo:42361:1,2017-05-25T12:30:00Z,27.5500,-92.4900,1011.2,11111222 
ADCP,ioos:station:wmo:42361:1,2017-05-25T13:30:00Z,27.5500,-92.4900,1011.9,11111222 
ADCP,ioos:station:wmo:42361:1,2017-05-25T14:30:00Z,27.5500,-92.4900,1012.2,11111222 
ADCP,ioos:station:wmo:42361:1,2017-05-25T15:30:00Z,27.5500,-92.4900,1012.5,11111222 
ADCP,ioos:station:wmo:42361:1,2017-05-25T16:30:00Z,27.5500,-92.4900,1012.9,11111222 
ADCP,ioos:station:wmo:42361:1,2017-05-25T17:30:00Z,27.5500,-92.4900,1012.5,11111222 
ADCP,ioos:station:wmo:42361:1,2017-05-25T18:30:00Z,27.5500,-92.4900,1012.5,11111222 
ADCP,ioos:station:wmo:42361:1,2017-05-25T19:30:00Z,27.5500,-92.4900,1012.2,11111222 
ADCP,ioos:station:wmo:42361:1,2017-05-25T20:30:00Z,27.5500,-92.4900,1011.9,11111222 
ADCP,ioos:station:wmo:42361:1,2017-05-25T21:30:00Z,27.5500,-92.4900,1011.5,11111222 
ADCP,ioos:station:wmo:42361:1,2017-05-25T22:30:00Z,27.5500,-92.4900,1011.2,11111222 
ADCP,ioos:station:wmo:42361:1,2017-05-25T23:30:00Z,27.5500,-92.4900,1011.2,11111222 
ADCP,ioos:station:wmo:42361:1,2017-05-26T00:30:00Z,27.5500,-92.4900,1010.8,11111222 
ADCP,ioos:station:wmo:42361:1,2017-05-26T01:30:00Z,27.5500,-92.4900,1011.2,11111222 
ADCP,ioos:station:wmo:42361:1,2017-05-26T02:30:00Z,27.5500,-92.4900,1011.9,11111222 
ADCP,ioos:station:wmo:42361:1,2017-05-26T03:30:00Z,27.5500,-92.4900,1012.9,11111222 
ADCP,ioos:station:wmo:42361:1,2017-05-26T04:30:00Z,27.5500,-92.4900,1013.2,11111222 
ADCP,ioos:station:wmo:42361:1,2017-05-26T05:30:00Z,27.5500,-92.4900,1013.2,11111222 
ADCP,ioos:station:wmo:42361:1,2017-05-26T06:30:00Z,27.5500,-92.4900,1012.9,11111222 
ADCP,ioos:station:wmo:42361:1,2017-05-26T07:30:00Z,27.5500,-92.4900,1012.5,11111222 
ADCP,ioos:station:wmo:42361:1,2017-05-26T08:30:00Z,27.5500,-92.4900,1012.5,11111222 
ADCP,ioos:station:wmo:42361:1,2017-05-26T09:30:00Z,27.5500,-92.4900,1012.9,11111222 
ADCP,ioos:station:wmo:42361:1,2017-05-26T10:30:00Z,27.5500,-92.4900,1013.2,11111222 
ADCP,ioos:station:wmo:42361:1,2017-05-26T11:30:00Z,27.5500,-92.4900,1013.2,11111222 
ADCP,ioos:station:wmo:42361:1,2017-05-26T12:30:00Z,27.5500,-92.4900,1013.9,11111222 
ADCP,ioos:station:wmo:42361:1,2017-05-26T13:30:00Z,27.5500,-92.4900,1014.6,11111222 
ADCP,ioos:station:wmo:42361:1,2017-05-26T14:30:00Z,27.5500,-92.4900,1014.9,11111222 
ADCP,ioos:station:wmo:42361:1,2017-05-26T15:30:00Z,27.5500,-92.4900,1014.9,11111222 
ADCP,ioos:station:wmo:42361:1,2017-05-26T16:30:00Z,27.5500,-92.4900,1014.9,11111222 
ADCP,ioos:station:wmo:42361:1,2017-05-26T17:30:00Z,27.5500,-92.4900,1014.9,11111222 
ADCP,ioos:station:wmo:42361:1,2017-05-26T18:30:00Z,27.5500,-92.4900,1014.9,11111222 
ADCP,ioos:station:wmo:42361:1,2017-05-26T19:30:00Z,27.5500,-92.4900,1014.6,11111222 
ADCP,ioos:station:wmo:42361:1,2017-05-26T20:30:00Z,27.5500,-92.4900,1014.2,11111222 
ADCP,ioos:station:wmo:42361:1,2017-05-26T21:30:00Z,27.5500,-92.4900,1014.2,11111222 
ADCP,ioos:station:wmo:42361:1,2017-05-26T22:30:00Z,27.5500,-92.4900,1013.9,11111222 
ADCP,ioos:station:wmo:42361:1,2017-05-26T23:30:00Z,27.5500,-92.4900,1013.9,11111222 
ADCP,ioos:station:wmo:42361:1,2017-05-27T00:30:00Z,27.5500,-92.4900,1013.9,11111222 
ADCP,ioos:station:wmo:42361:1,2017-05-27T01:30:00Z,27.5500,-92.4900,1013.9,11111222 
ADCP,ioos:station:wmo:42361:1,2017-05-27T02:30:00Z,27.5500,-92.4900,1014.6,11111222 
ADCP,ioos:station:wmo:42361:1,2017-05-27T03:30:00Z,27.5500,-92.4900,1015.2,11111222 
ADCP,ioos:station:wmo:42361:1,2017-05-27T04:30:00Z,27.5500,-92.4900,1015.6,11111222 
ADCP,ioos:station:wmo:42361:1,2017-05-27T05:30:00Z,27.5500,-92.4900,1015.2,11111222 
ADCP,ioos:station:wmo:42361:1,2017-05-27T06:30:00Z,27.5500,-92.4900,1014.9,11111222 
ADCP,ioos:station:wmo:42361:1,2017-05-27T07:30:00Z,27.5500,-92.4900,1014.2,11111222 
ADCP,ioos:station:wmo:42361:1,2017-05-27T08:30:00Z,27.5500,-92.4900,1014.2,11111222 
ADCP,ioos:station:wmo:42361:1,2017-05-27T09:30:00Z,27.5500,-92.4900,1014.2,11111222 
ADCP,ioos:station:wmo:42361:1,2017-05-27T10:30:00Z,27.5500,-92.4900,1013.9,11111222 
ADCP,ioos:station:wmo:42361:1,2017-05-27T11:30:00Z,27.5500,-92.4900,1014.9,11111222 
ADCP,ioos:station:wmo:42361:1,2017-05-27T12:30:00Z,27.5500,-92.4900,1015.2,11111222 
ADCP,ioos:station:wmo:42361:1,2017-05-27T13:30:00Z,27.5500,-92.4900,1015.6,11111222 
ADCP,ioos:station:wmo:42361:1,2017-05-27T14:30:00Z,27.5500,-92.4900,1015.9,11111222 
ADCP,ioos:station:wmo:42361:1,2017-05-27T15:30:00Z,27.5500,-92.4900,1016.3,11111222 
ADCP,ioos:station:wmo:42361:1,2017-05-27T16:30:00Z,27.5500,-92.4900,1016.3,11111222 
ADCP,ioos:station:wmo:42361:1,2017-05-27T17:30:00Z,27.5500,-92.4900,1015.9,11111222 
ADCP,ioos:station:wmo:42361:1,2017-05-27T18:30:00Z,27.5500,-92.4900,1015.6,11111222 
ADCP,ioos:station:wmo:42361:1,2017-05-27T19:30:00Z,27.5500,-92.4900,1015.2,11111222 
ADCP,ioos:station:wmo:42361:1,2017-05-27T20:30:00Z,27.5500,-92.4900,1014.9,11111222 
ADCP,ioos:station:wmo:42361:1,2017-05-27T21:30:00Z,27.5500,-92.4900,1014.6,11111222 
ADCP,ioos:station:wmo:42361:1,2017-05-27T22:30:00Z,27.5500,-92.4900,1014.2,11111222 
ADCP,ioos:station:wmo:42361:1,2017-05-27T23:30:00Z,27.5500,-92.4900,1014.2,11111222 
ADCP,ioos:station:wmo:42361:1,2017-05-28T00:30:00Z,27.5500,-92.4900,1014.2,11111222 
ADCP,ioos:station:wmo:42361:1,2017-05-28T01:30:00Z,27.5500,-92.4900,1014.2,11111222 
ADCP,ioos:station:wmo:42361:1,2017-05-28T02:30:00Z,27.5500,-92.4900,1013.9,11111222 
ADCP,ioos:station:wmo:42361:1,2017-05-28T03:30:00Z,27.5500,-92.4900,1014.2,11111222 
ADCP,ioos:station:wmo:42361:1,2017-05-28T04:30:00Z,27.5500,-92.4900,1014.2,11111222 
ADCP,ioos:station:wmo:42361:1,2017-05-28T05:30:00Z,27.5500,-92.4900,1014.2,11111222 
ADCP,ioos:station:wmo:42361:1,2017-05-28T06:30:00Z,27.5500,-92.4900,1013.9,11111222 
ADCP,ioos:station:wmo:42361:1,2017-05-28T07:30:00Z,27.5500,-92.4900,1012.9,11111222 
ADCP,ioos:station:wmo:42361:1,2017-05-28T08:30:00Z,27.5500,-92.4900,1012.2,11111222 
ADCP,ioos:station:wmo:42361:1,2017-05-28T09:30:00Z,27.5500,-92.4900,1012.2,11111222 
ADCP,ioos:station:wmo:42361:1,2017-05-28T10:30:00Z,27.5500,-92.4900,1012.2,11111222 
ADCP,ioos:station:wmo:42361:1,2017-05-28T11:30:00Z,27.5500,-92.4900,1012.9,11111222 
ADCP,ioos:station:wmo:42361:1,2017-05-28T12:30:00Z,27.5500,-92.4900,1013.9,11111222 
ADCP,ioos:station:wmo:42361:1,2017-05-28T13:30:00Z,27.5500,-92.4900,1014.6,11111222 
ADCP,ioos:station:wmo:42361:1,2017-05-28T14:30:00Z,27.5500,-92.4900,1014.6,11111222 
ADCP,ioos:station:wmo:42361:1,2017-05-28T15:30:00Z,27.5500,-92.4900,1014.9,11111222 
ADCP,ioos:station:wmo:42361:1,2017-05-28T16:30:00Z,27.5500,-92.4900,1015.9,11111222 
ADCP,ioos:station:wmo:42361:1,2017-05-28T17:30:00Z,27.5500,-92.4900,1015.9,11111222 
ADCP,ioos:station:wmo:42361:1,2017-05-28T18:30:00Z,27.5500,-92.4900,1015.6,11111222 
ADCP,ioos:station:wmo:42361:1,2017-05-28T19:30:00Z,27.5500,-92.4900,1014.9,11111222 
ADCP,ioos:station:wmo:42361:1,2017-05-28T20:30:00Z,27.5500,-92.4900,1014.2,11111222 
ADCP,ioos:station:wmo:42361:1,2017-05-28T21:30:00Z,27.5500,-92.4900,1013.5,11111222 
ADCP,ioos:station:wmo:42361:1,2017-05-28T22:30:00Z,27.5500,-92.4900,1013.5,11111222 
ADCP,ioos:station:wmo:42361:1,2017-05-28T23:30:00Z,27.5500,-92.4900,1013.5,11111222 
ADCP,ioos:station:wmo:42361:1,2017-05-29T00:30:00Z,27.5500,-92.4900,1013.5,11111222 
ADCP,ioos:station:wmo:42361:1,2017-05-29T01:30:00Z,27.5500,-92.4900,1013.5,11111222 
ADCP,ioos:station:wmo:42361:1,2017-05-29T02:30:00Z,27.5500,-92.4900,1012.9,11111222 
ADCP,ioos:station:wmo:42361:1,2017-05-29T03:30:00Z,27.5500,-92.4900,1013.9,11111222 
ADCP,ioos:station:wmo:42361:1,2017-05-29T04:30:00Z,27.5500,-92.4900,1015.2,11111222 
ADCP,ioos:station:wmo:42361:1,2017-05-29T05:30:00Z,27.5500,-92.4900,1014.9,11111222 
ADCP,ioos:station:wmo:42361:1,2017-05-29T06:30:00Z,27.5500,-92.4900,1013.9,11111222 
ADCP,ioos:station:wmo:42361:1,2017-05-29T07:30:00Z,27.5500,-92.4900,1013.5,11111222 
ADCP,ioos:station:wmo:42361:1,2017-05-29T08:30:00Z,27.5500,-92.4900,1013.9,11111222 
ADCP,ioos:station:wmo:42361:1,2017-05-29T09:30:00Z,27.5500,-92.4900,1015.6,11111222 
ADCP,ioos:station:wmo:42361:1,2017-05-29T10:30:00Z,27.5500,-92.4900,1015.2,11111222 
ADCP,ioos:station:wmo:42361:1,2017-05-29T11:30:00Z,27.5500,-92.4900,1015.9,11111222 
ADCP,ioos:station:wmo:42361:1,2017-05-29T12:30:00Z,27.5500,-92.4900,1016.3,11111222 
ADCP,ioos:station:wmo:42361:1,2017-05-29T13:30:00Z,27.5500,-92.4900,1017.3,11111222 
ADCP,ioos:station:wmo:42361:1,2017-05-29T14:30:00Z,27.5500,-92.4900,1016.9,11111222 
ADCP,ioos:station:wmo:42361:1,2017-05-29T15:30:00Z,27.5500,-92.4900,1016.6,11111222 
ADCP,ioos:station:wmo:42361:1,2017-05-29T16:30:00Z,27.5500,-92.4900,1016.6,11111222 
ADCP,ioos:station:wmo:42361:1,2017-05-29T17:30:00Z,27.5500,-92.4900,1016.6,11111222 
ADCP,ioos:station:wmo:42361:1,2017-05-29T18:30:00Z,27.5500,-92.4900,1015.9,11111222 
ADCP,ioos:station:wmo:42361:1,2017-05-29T19:30:00Z,27.5500,-92.4900,1016.3,11111222 
ADCP,ioos:station:wmo:42361:1,2017-05-29T20:30:00Z,27.5500,-92.4900,1014.9,11111222 
ADCP,ioos:station:wmo:42361:1,2017-05-29T21:30:00Z,27.5500,-92.4900,1013.9,11111222 
ADCP,ioos:station:wmo:42361:1,2017-05-29T22:30:00Z,27.5500,-92.4900,1013.5,11111222 
ADCP,ioos:station:wmo:42361:1,2017-05-29T23:30:00Z,27.5500,-92.4900,1013.2,11111222 
ADCP,ioos:station:wmo:42361:1,2017-05-30T00:30:00Z,27.5500,-92.4900,1013.9,11111222 
ADCP,ioos:station:wmo:42361:1,2017-05-30T01:30:00Z,27.5500,-92.4900,1014.9,11111222 
ADCP,ioos:station:wmo:42361:1,2017-05-30T02:30:00Z,27.5500,-92.4900,1014.6,11111222 
ADCP,ioos:station:wmo:42361:1,2017-05-30T03:30:00Z,27.5500,-92.4900,1015.2,11111222 
ADCP,ioos:station:wmo:42361:1,2017-05-30T04:30:00Z,27.5500,-92.4900,1015.6,11111222 
ADCP,ioos:station:wmo:42361:1,2017-05-30T05:30:00Z,27.5500,-92.4900,1015.6,11111222 
ADCP,ioos:station:wmo:42361:1,2017-05-30T06:30:00Z,27.5500,-92.4900,1016.3,11111222 
ADCP,ioos:station:wmo:42361:1,2017-05-30T07:30:00Z,27.5500,-92.4900,1015.6,11111222 
ADCP,ioos:station:wmo:42361:1,2017-05-30T08:30:00Z,27.5500,-92.4900,1015.6,11111222 
ADCP,ioos:station:wmo:42361:1,2017-05-30T09:30:00Z,27.5500,-92.4900,1014.9,11111222 
ADCP,ioos:station:wmo:42361:1,2017-05-30T10:30:00Z,27.5500,-92.4900,1014.9,11111222 
ADCP,ioos:station:wmo:42361:1,2017-05-30T11:30:00Z,27.5500,-92.4900,1015.6,11111222 